SL-8 R/B, 19922

Orbit data source: Space-Track

SL-8 R/B, 19922 is space debris in LEO originally from a launch on Tue, 04 Apr 1989 UTC launched from the Plesetsk Missile And Space Complex (PKMTR). Debris objects in space refer to the collection of defunct objects orbiting the Earth. Examples of debris include non-operational satellites, rocket bodies, and fragments generated from explosions, collisions, or faulty payload assembly.

Loading next visibility...
Identifier
19922, 1989-028B
Orbit
LEO
Country
Flag of CISCIS
Related business
Manufacturer
Omsk Av. Zav.
Mission
Spacecraft
Bus & Motor
S3, Unknown motor
Mass
1,434 kg wet, 1,434 kg dry
Launch date (UTC)
1989-04-04 (37 years ago)
Launch vehicle
Unknown
Launch site
Plesetsk Missile And Space Complex (PKMTR)
Object type
Payload
Rocket body
Debris
Shape & HBR
Cyl, 3.3 m
Radar Cross Section
14.646 m², Large (>1 m²)

Expand to show TLE details & history
Last TLE update: 2 days ago

TLE from 2 days ago
0 SL-8 R/B
1 19922U 89028B   26171.44877800 -.00000010  00000-0 -25924-4 0  9994
2 19922  82.9582 145.5349 0037223  29.9939 330.3340 13.77503468869887
Epoch: 2026-06-20T10:46Z
TLE epoch observation values (Epoch: 2026-06-20T10:46:14.419Z)
Latitude
Longitude
75.31157°
Altitude
951.903 km
Speed
7.388 km/s
True Right ascension
09h 42m 08s
True Declination
0° 00' 00"
Sunlit
Object was in daylight at epoch
Visualization orbit readout
Latitude
Unknown
Longitude
Unknown
Altitude
Unknown
Speed
Unknown
Apparent Right ascension
Unknown
Apparent Declination
Unknown
Sunlit
N/A
Visualization observer readout
Local Sidereal Time
23:18:23
Azimuth
Unknown
Elevation
Unknown
Doppler factor
Unknown
Orbital elements
Apogee altitude
997.251 km
Perigee altitude
942.548 km
Semi-major axis
7,348.037 km
Eccentricity
0.00372
Inclination
82.9582°
RAAN
145.5349°
Arg. of periapsis
29.9939°
True anomaly
330.12203°
Mean anomaly
330.334°
Eccentric anomaly
330.2281°
Mean motion
3.44577 °/min
Orbital period
104.48 mins
BSTAR
-0.000025924
Loading maneuver chart data...
Computing Atmospheric mass density...
Loading historical data...
Loading historical data...
Loading historical data...
Loading historical data...
Loading historical data...
Loading historical data...
Loading historical data...
Other satellites on launch #28 in the year 1989 (1989-04-04 UTC)

Documentation

Showing up to 5 results
|